CPA213 YPDN-WADD

Flight info

Callsign CPA213
Flight time N/A
Altitude 36000
Route JULIE5 JULIE Q320 IDOTO M766 GABIT GABIT1C
Aircraft A35K/H-L/C

Departure

Time 2026-04-28 10:23
Airport Darwin International Airport / RAAF Darwin (YPDN)

Arrival

Time N/A
Airport Denpasar I Gusti Ngurah Rai International Airport (WADD)
Time Latitude Longitude Altitude Speed Heading
2026-04-28 10:22 -12.45794 131.01501 7257 ft 288 kts 96°
2026-04-28 10:23 -12.45474 131.03506 7767 ft 290 kts 66°
2026-04-28 10:23 -12.44212 131.05103 7972 ft 292 kts 35°
2026-04-28 10:23 -12.42338 131.05828 7996 ft 291 kts
2026-04-28 10:23 -12.40401 131.05425 8009 ft 283 kts 326°
2026-04-28 10:24 -12.38698 131.04435 7972 ft 291 kts 333°
2026-04-28 10:24 -12.36703 131.03970 8002 ft 296 kts 350°
2026-04-28 10:24 -12.34657 131.03826 7998 ft 294 kts 353°
2026-04-28 10:24 -12.32625 131.03672 7999 ft 291 kts 347°
2026-04-28 10:25 -12.30758 131.02957 8000 ft 284 kts 321°
2026-04-28 10:25 -12.29255 131.01659 7988 ft 284 kts 310°
2026-04-28 10:25 -12.28157 131.00031 8034 ft 279 kts 289°
2026-04-28 10:25 -12.27493 130.98143 8315 ft 286 kts 283°
2026-04-28 10:26 -12.26874 130.96177 9196 ft 292 kts 283°
2026-04-28 10:26 -12.26454 130.94863 9944 ft 293 kts 284°
2026-04-28 10:26 -12.25576 130.92135 10857 ft 316 kts 284°
2026-04-28 10:26 -12.25107 130.90688 11112 ft 332 kts 284°
2026-04-28 10:27 -12.24347 130.88369 11522 ft 352 kts 284°
2026-04-28 10:27 -12.23340 130.85157 12439 ft 363 kts 285°
2026-04-28 10:27 -12.22956 130.83455 13011 ft 364 kts 277°
2026-04-28 10:27 -12.22752 130.80863 13845 ft 368 kts 270°
2026-04-28 10:28 -12.22702 130.78223 14539 ft 374 kts 269°
2026-04-28 10:28 -12.22692 130.74663 15513 ft 381 kts 268°
2026-04-28 10:28 -12.22695 130.72834 16021 ft 384 kts 268°
2026-04-28 10:29 -12.22717 130.67344 17514 ft 393 kts 267°
2026-04-28 10:29 -12.22730 130.64536 18253 ft 397 kts 267°
2026-04-28 10:29 -12.22745 130.61696 18900 ft 402 kts 267°
2026-04-28 10:29 -12.22760 130.58821 19552 ft 406 kts 268°
2026-04-28 10:30 -12.22724 130.55913 20204 ft 411 kts 271°
2026-04-28 10:30 -12.22305 130.53000 20865 ft 418 kts 282°
2026-04-28 10:30 -12.21314 130.50180 21538 ft 424 kts 294°
2026-04-28 10:30 -12.19969 130.47484 22217 ft 428 kts 297°
2026-04-28 10:31 -12.18549 130.44792 22903 ft 432 kts 297°
2026-04-28 10:31 -12.17134 130.42111 23555 ft 436 kts 297°
2026-04-28 10:31 -12.15697 130.39375 24098 ft 439 kts 297°
2026-04-28 10:31 -12.14249 130.36606 24680 ft 442 kts 297°
2026-04-28 10:32 -12.12793 130.33820 25288 ft 445 kts 297°
2026-04-28 10:32 -12.11329 130.31016 25969 ft 448 kts 297°
2026-04-28 10:32 -12.09858 130.28197 26657 ft 451 kts 297°
2026-04-28 10:32 -12.08374 130.25354 27364 ft 454 kts 297°
2026-04-28 10:33 -12.06882 130.22495 28053 ft 458 kts 297°
2026-04-28 10:33 -12.05376 130.19610 28720 ft 462 kts 297°
2026-04-28 10:33 -12.03854 130.16696 29369 ft 467 kts 297°
2026-04-28 10:33 -12.02322 130.13763 30030 ft 470 kts 297°
2026-04-28 10:34 -12.00795 130.10841 30566 ft 474 kts 297°
2026-04-28 10:34 -11.99236 130.07858 31133 ft 477 kts 297°
2026-04-28 10:34 -11.97666 130.04857 31685 ft 480 kts 297°
2026-04-28 10:34 -11.96088 130.01840 32203 ft 483 kts 297°
2026-04-28 10:35 -11.94503 129.98811 32751 ft 485 kts 297°
2026-04-28 10:35 -11.92906 129.95760 33227 ft 488 kts 297°
2026-04-28 10:35 -11.91303 129.92697 33700 ft 491 kts 297°
2026-04-28 10:35 -11.89692 129.89621 34170 ft 492 kts 297°
2026-04-28 10:36 -11.88080 129.86544 34743 ft 490 kts 297°
2026-04-28 10:36 -11.86475 129.83483 35302 ft 488 kts 297°
2026-04-28 10:36 -11.84876 129.80433 35827 ft 487 kts 297°
2026-04-28 10:36 -11.83273 129.77376 36269 ft 489 kts 297°
2026-04-28 10:37 -11.81668 129.74317 36771 ft 488 kts 297°
2026-04-28 10:37 -11.80173 129.71217 37269 ft 486 kts 292°
2026-04-28 10:37 -11.79097 129.68005 37779 ft 484 kts 284°
2026-04-28 10:37 -11.78263 129.64669 38280 ft 483 kts 283°
2026-04-28 10:38 -11.77518 129.61335 38741 ft 481 kts 282°
2026-04-28 10:38 -11.76809 129.57991 39151 ft 480 kts 282°
2026-04-28 10:38 -11.76111 129.54659 39573 ft 478 kts 282°
2026-04-28 10:38 -11.75411 129.51346 39863 ft 478 kts 282°
2026-04-28 10:39 -11.74701 129.48025 39925 ft 479 kts 282°
2026-04-28 10:39 -11.73239 129.41305 39930 ft 489 kts 282°
2026-04-28 10:40 -11.71757 129.34565 39936 ft 490 kts 282°
2026-04-28 10:40 -11.70263 129.27786 39928 ft 489 kts 282°
2026-04-28 10:41 -11.68768 129.21006 39928 ft 489 kts 282°
2026-04-28 10:41 -11.67284 129.14277 39929 ft 489 kts 282°
2026-04-28 10:42 -11.65783 129.07479 39939 ft 492 kts 282°
2026-04-28 10:42 -11.64276 129.00661 39932 ft 492 kts 282°
2026-04-28 10:43 -11.62769 128.93854 39931 ft 492 kts 282°
2026-04-28 10:43 -11.61261 128.87047 39932 ft 492 kts 282°
2026-04-28 10:44 -11.59762 128.80289 39932 ft 491 kts 282°
2026-04-28 10:44 -11.58253 128.73496 39934 ft 491 kts 282°
2026-04-28 10:45 -11.56745 128.66712 39930 ft 490 kts 282°
2026-04-28 10:45 -11.55235 128.59931 39932 ft 490 kts 283°
2026-04-28 10:46 -11.53722 128.53140 39932 ft 491 kts 283°
2026-04-28 10:46 -11.52205 128.46342 39933 ft 491 kts 283°
2026-04-28 10:47 -11.50701 128.39610 39935 ft 490 kts 283°
2026-04-28 10:47 -11.49184 128.32828 39935 ft 491 kts 283°
2026-04-28 10:48 -11.47664 128.26037 39931 ft 491 kts 283°
2026-04-28 10:48 -11.46145 128.19261 39934 ft 490 kts 283°
2026-04-28 10:49 -11.44623 128.12476 39934 ft 490 kts 283°
2026-04-28 10:49 -11.43340 128.05650 39935 ft 491 kts 275°
2026-04-28 10:50 -11.43402 127.98724 39933 ft 491 kts 267°
2026-04-28 10:50 -11.43835 127.91775 39934 ft 491 kts 266°
2026-04-28 10:51 -11.44321 127.84828 39936 ft 491 kts 266°
2026-04-28 10:51 -11.44788 127.77867 39935 ft 491 kts 266°
2026-04-28 10:52 -11.45234 127.70972 39937 ft 491 kts 266°
2026-04-28 10:52 -11.45676 127.64018 39935 ft 490 kts 267°
2026-04-28 10:53 -11.46116 127.57086 39937 ft 491 kts 267°
2026-04-28 10:53 -11.46555 127.50149 39936 ft 490 kts 267°
2026-04-28 10:54 -11.46993 127.43208 39934 ft 490 kts 267°
2026-04-28 10:54 -11.47429 127.36281 39936 ft 489 kts 266°
2026-04-28 10:55 -11.47863 127.29351 39937 ft 489 kts 267°
2026-04-28 10:55 -11.48295 127.22424 39936 ft 490 kts 267°
2026-04-28 10:56 -11.48723 127.15533 39934 ft 489 kts 266°
2026-04-28 10:56 -11.49152 127.08604 39936 ft 489 kts 266°
2026-04-28 10:57 -11.49579 127.01683 39937 ft 489 kts 267°
2026-04-28 10:57 -11.50005 126.94751 39940 ft 489 kts 267°
2026-04-28 10:58 -11.50429 126.87825 39933 ft 490 kts 266°
2026-04-28 10:58 -11.50849 126.80940 39937 ft 489 kts 267°
2026-04-28 10:59 -11.51269 126.74020 39941 ft 489 kts 267°
2026-04-28 10:59 -11.51646 126.67082 39937 ft 489 kts 270°
2026-04-28 11:00 -11.50878 126.60190 39941 ft 490 kts 281°
2026-04-28 11:00 -11.49509 126.53380 39937 ft 490 kts 282°
2026-04-28 11:01 -11.48024 126.46592 39938 ft 491 kts 283°
2026-04-28 11:01 -11.46543 126.39789 39938 ft 493 kts 282°
2026-04-28 11:02 -11.45083 126.32965 39939 ft 493 kts 282°
2026-04-28 11:02 -11.43640 126.26195 39938 ft 491 kts 282°
2026-04-28 11:03 -11.42184 126.19369 39938 ft 493 kts 282°
2026-04-28 11:03 -11.40723 126.12537 39938 ft 493 kts 282°
2026-04-28 11:04 -11.39260 126.05700 39939 ft 492 kts 282°
2026-04-28 11:04 -11.37798 125.98882 39938 ft 492 kts 282°
2026-04-28 11:05 -11.36331 125.92044 39943 ft 494 kts 282°
2026-04-28 11:05 -11.34873 125.85260 39939 ft 493 kts 282°
2026-04-28 11:06 -11.33404 125.78431 39939 ft 493 kts 282°
2026-04-28 11:06 -11.31934 125.71604 39936 ft 495 kts 282°
2026-04-28 11:07 -11.30455 125.64745 39938 ft 494 kts 282°
2026-04-28 11:07 -11.28979 125.57910 39937 ft 493 kts 282°
2026-04-28 11:08 -11.27513 125.51125 39940 ft 494 kts 282°
2026-04-28 11:08 -11.26029 125.44266 39935 ft 495 kts 282°
2026-04-28 11:09 -11.24545 125.37415 39935 ft 494 kts 282°
2026-04-28 11:09 -11.23061 125.30574 39934 ft 494 kts 282°
2026-04-28 11:10 -11.21572 125.23716 39936 ft 496 kts 282°
2026-04-28 11:10 -11.20092 125.16907 39934 ft 495 kts 282°
2026-04-28 11:11 -11.18602 125.10061 39934 ft 495 kts 282°
2026-04-28 11:11 -11.17108 125.03202 39934 ft 496 kts 282°
2026-04-28 11:12 -11.15612 124.96342 39933 ft 496 kts 282°
2026-04-28 11:12 -11.14125 124.89533 39933 ft 494 kts 282°
2026-04-28 11:13 -11.12628 124.82689 39933 ft 495 kts 283°
2026-04-28 11:13 -11.11126 124.75825 39933 ft 496 kts 283°
2026-04-28 11:14 -11.09633 124.69011 39932 ft 495 kts 283°
2026-04-28 11:14 -11.08373 124.63266 39930 ft 496 kts 283°
2026-04-28 11:15 -11.06877 124.56454 39932 ft 497 kts 282°
2026-04-28 11:15 -11.05349 124.49594 39928 ft 496 kts 283°
2026-04-28 11:16 -11.03810 124.42756 39932 ft 495 kts 283°
2026-04-28 11:16 -11.02271 124.35921 39929 ft 496 kts 283°
2026-04-28 11:17 -11.00730 124.29068 39926 ft 496 kts 283°
2026-04-28 11:17 -10.99191 124.22229 39927 ft 495 kts 283°
2026-04-28 11:18 -10.97652 124.15396 39927 ft 495 kts 283°
2026-04-28 11:18 -10.96108 124.08549 39929 ft 496 kts 283°
2026-04-28 11:19 -10.94564 124.01709 39924 ft 496 kts 283°
2026-04-28 11:19 -10.93028 123.94910 39922 ft 497 kts 283°
2026-04-28 11:20 -10.91477 123.88053 39922 ft 497 kts 283°
2026-04-28 11:20 -10.89924 123.81196 39924 ft 497 kts 283°
2026-04-28 11:21 -10.88369 123.74337 39920 ft 496 kts 283°
2026-04-28 11:21 -10.86815 123.67494 39918 ft 497 kts 283°
2026-04-28 11:22 -10.85255 123.60627 39917 ft 497 kts 283°
2026-04-28 11:22 -10.83699 123.53786 39917 ft 496 kts 283°
2026-04-28 11:23 -10.82153 123.46995 39916 ft 496 kts 283°
2026-04-28 11:23 -10.80594 123.40156 39917 ft 497 kts 283°
2026-04-28 11:24 -10.79031 123.33307 39914 ft 496 kts 283°
2026-04-28 11:24 -10.77470 123.26474 39915 ft 495 kts 283°
2026-04-28 11:25 -10.75908 123.19644 39916 ft 496 kts 283°
2026-04-28 11:25 -10.74341 123.12796 39916 ft 496 kts 283°
2026-04-28 11:26 -10.72781 123.05988 39915 ft 497 kts 283°
2026-04-28 11:26 -10.71208 122.99133 39912 ft 498 kts 283°
2026-04-28 11:27 -10.69630 122.92264 39916 ft 499 kts 283°
2026-04-28 11:27 -10.68052 122.85396 39916 ft 498 kts 283°
2026-04-28 11:28 -10.66476 122.78548 39916 ft 497 kts 283°
2026-04-28 11:28 -10.64900 122.71706 39913 ft 497 kts 283°
2026-04-28 11:29 -10.63327 122.64885 39913 ft 497 kts 283°
2026-04-28 11:29 -10.61748 122.58045 39914 ft 496 kts 283°
2026-04-28 11:30 -10.60166 122.51202 39915 ft 496 kts 283°
2026-04-28 11:30 -10.57800 122.40975 39911 ft 496 kts 283°
2026-04-28 11:31 -10.56219 122.34151 39910 ft 495 kts 283°
2026-04-28 11:31 -10.54640 122.27343 39910 ft 495 kts 283°
2026-04-28 11:32 -10.53057 122.20522 39911 ft 497 kts 284°
2026-04-28 11:32 -10.51465 122.13672 39911 ft 498 kts 284°
2026-04-28 11:33 -10.49868 122.06807 39913 ft 498 kts 284°
2026-04-28 11:33 -10.48285 122.00012 39909 ft 497 kts 284°
2026-04-28 11:34 -10.46692 121.93175 39905 ft 497 kts 284°
2026-04-28 11:34 -10.45103 121.86365 39905 ft 495 kts 284°
2026-04-28 11:35 -10.43509 121.79543 39904 ft 496 kts 284°
2026-04-28 11:35 -10.41917 121.72731 39909 ft 495 kts 284°
2026-04-28 11:36 -10.40326 121.65933 39909 ft 494 kts 284°
2026-04-28 11:36 -10.38736 121.59148 39909 ft 494 kts 284°
2026-04-28 11:37 -10.37138 121.52335 39907 ft 495 kts 284°
2026-04-28 11:37 -10.35541 121.45532 39905 ft 494 kts 284°
2026-04-28 11:38 -10.33951 121.38762 39910 ft 492 kts 284°
2026-04-28 11:38 -10.32367 121.32029 39905 ft 493 kts 284°
2026-04-28 11:39 -10.30768 121.25239 39907 ft 495 kts 284°
2026-04-28 11:39 -10.29166 121.18441 39905 ft 494 kts 284°
2026-04-28 11:40 -10.27565 121.11655 39905 ft 494 kts 285°
2026-04-28 11:40 -10.25959 121.04856 39910 ft 495 kts 284°
2026-04-28 11:41 -10.24354 120.98065 39908 ft 495 kts 284°
2026-04-28 11:41 -10.22749 120.91281 39907 ft 495 kts 284°